Regional Weather Roundup
Issued by NWS Albany, NY

Home | Current Version | Previous Version | Text Only | Print | Product List | Glossary On
Versions: 1 2 3 4 5 6 7 8 9 10 11 12 13 14 15 16 17 18 19 20 21 22 23 24 25 26 27 28 29 30 31 32 33 34 35 36 37 38 39 40 41 42 43 44 45 46 47 48
000
ASUS41 KALY 020110
RWRALY

NEW YORK STATE HOURLY WEATHER ROUNDUP
NATIONAL WEATHER SERVICE ALBANY NY
800 PM EST SUN MAR 01 2015

NOTE: "FAIR" INDICATES FEW OR NO CLOUDS BELOW 12,000 FEET WITH NO
SIGNIFICANT WEATHER AND/OR NO OBSTRUCTIONS TO VISIBILITY.

NYZ032-033-038>043-046>054-057>066-NYZ062>081-020200-
EAST


CITY           SKY/WX    TMP DP  RH WIND       PRES   REMARKS
ALBANY         LGT SNOW  24  19  81 S13       30.23F VSB 1   WCI  12
GLENS FALLS    LGT SNOW  23  19  85 S8        30.21F FOG     WCI  14
POUGHKEEPSIE   LGT SNOW  25  21  85 CALM      30.28F FOG
NEWBURGH       LGT SNOW  23  21  93 CALM      30.27F FOG
MONTGOMERY     LGT SNOW  23  21  92 CALM      30.26F FOG
WHITE PLAINS   LGT SNOW  24  22  91 CALM      30.26F VSB 1
ISLIP          LGT SNOW  28  25  88 N3        30.27F FOG
NEW YORK CITY  LGT SNOW  28  25  86 CALM      30.29F FOG
CENTRAL PARK   LGT SNOW  28  23  81 CALM      30.31F
$$

NYZ005>009-017-018-044>046-055-056-020200-
CENTRAL


CITY           SKY/WX    TMP DP  RH WIND       PRES   REMARKS
FULTON         LGT SNOW  25  21  85 SE3       30.17S FOG
SYRACUSE       LGT SNOW  21  21 100 E3        30.15F FOG
ROME           LGT SNOW  22  20  92 SE7       30.19F FOG     WCI  13
ELMIRA         LGT SNOW  25  25 100 CALM      30.16F FOG
BINGHAMTON     LGT SNOW  22  20  92 S6        30.12F FOG     WCI  14
MONTICELLO     CLOUDY    19  18  93 CALM      30.19F
$$

NYZ026>034-041>043-020200-
NORTH


CITY           SKY/WX    TMP DP  RH WIND       PRES   REMARKS
WATERTOWN      LGT SNOW  26  22  84 SW7       30.16F FOG     WCI  18
FORT DRUM      NOT AVBL
MASSENA        CLOUDY    25  22  88 SW6       30.16F WCI  18
SARANAC LAKE   LGT SNOW  21  18  88 SW10      30.04F FOG     WCI  10
PLATTSBURGH    LGT SNOW  25  18  74 S7        30.15F WCI  17
$$

NYZ001>004-010>016-019>021-020200-
WEST


CITY           SKY/WX    TMP DP  RH WIND       PRES   REMARKS
NIAGARA FALLS  LGT SNOW  22  19  89 SW9       30.17S FOG     WCI  12
BUFFALO        LGT SNOW  22  19  89 SW7       30.17F FOG     WCI  13
DUNKIRK        FLURRIES  23  20  88 SW8       30.19F WCI  14
JAMESTOWN      CLOUDY    23  21  93 CALM      30.11S
WELLSVILLE     FLURRIES  28  24  85 SW6       30.08F WCI  22
ROCHESTER      LGT SNOW  25  23  92 CALM      30.16F FOG
PENN YAN       CLOUDY    27  24  89 S5        30.13F FOG     WCI  22
$$

             KEY
       WCI = WIND CHILL INDEX
       VSB = VISIBILITY
       HX  = HEAT INDEX
$$



USA.gov is the U.S. government's official web portal to all federal, state and local government web resources and services.